www.pogodaiklimat.ru

Погода и климат >> Архив погоды >> Финляндия >> Пудасъярви


ПОГОДА в Пудасъярви

  • Прогноз погоды в Пудасъярви
  • Монитор погоды в Пудасъярви

АРХИВ ПОГОДЫ в Пудасъярви

Время (UTC), дата Ветер
(напр.,м/с)
 
Видим.   Явления Облачность Т
(С)
Тd
(С)
f
(%)
Тe
(С)
Тes
(С)
Комфортность P
(гПа)
Po
(гПа)
Тmin
(С)
Tmax
(С)
R
(мм)
R24
(мм)
S
(см)
00 12.06 СЗ 1-2
{3}
50 км ясно +2.0 0.0 87 0 0 1031.0 1015.5
03 12.06 С 2-3
{4}
45 км ясно +5.0 +0.7 74 +3 +4 1031.4 1016.1
06 12.06 С 3-5
{7}
40 км 1/1 1000 м
[]
+9.0 -2.8 43 +7 +12 1031.3 1016.2 +1.8 +9.3
09 12.06 С 4-6
{6}
45 км 9/0 1500 м
[]
+9.4 -1.8 45 +7 +11 1031.8 1016.7
12 12.06 С 3-4
{7}
35 км 6/0 1500 м
[]
+11.7 -2.9 36 +11 +17 1030.9 1015.9
15 12.06 В 2-4
{5}
45 км 6/0 1500 м
[]
+12.8 -1.0 38 +12 +16 1029.6 1014.8
18 12.06 В 2-3
{3}
50 км ясно +12.5 -1.3 38 +12 +13 1029.3 1014.4 +8.5 +13.7
21 12.06 В 1-2
{2}
50 км ясно +7.5 +1.8 67 +7 +7 1029.5 1014.3
00 13.06 В 1-1
{2}
50 км 4/0
[]
+2.8 +1.8 93 +1 +1 1029.6 1014.2
03 13.06 ЮВ 1-2
{3}
50 км 1/0
[]
+8.5 +2.6 66 +8 +10 1029.0 1014.0
06 13.06 ЮВ 2-5
{5}
н/о 1/1
[]
+13.3 +0.4 41 +13 +19 1027.8 1012.9 +2.8 +13.5
09 13.06 ЮВ 3-6
{6}
40 км 1/0
[]
+14.7 -0.1 36 +14 +23 1027.3 1012.5
12 13.06 ЮВ 4-6
{7}
40 км 4/0
[]
+16.9 -0.2 31 +17 +22 1025.2 1010.6
15 13.06 ЮВ 1-4
{5}
45 км 4/0
[]
+18.0 -0.8 28 +19 +24 1023.1 1008.6
18 13.06 ЮЗ 1-2
{2}
50 км 9/9
[]
+16.9 +2.7 39 +18 +18 1022.1 1007.5 +2.8 +13.5
21 13.06 В 2-3
{3}
50 км 9/1
[]
+14.2 +5.6 56 +14 +14 1021.8 1007.1
00 14.06 штиль 0-1
{3}
50 км ясно +8.3 +6.0 85 +7 +7 1021.9 1006.9
03 14.06 Ю 2-2
{2}
40 км ясно +11.6 +6.6 71 +11 +12 1020.7 1005.9
06 14.06 С 1-2
{2}
35 км ясно +16.8 +4.4 44 +18 +25 1019.7 1005.2 +7.9 +17.2
09 14.06 Ю 3-5
{5}
35 км ясно +19.0 +2.1 32 +19 +29 1018.6 1004.2
12 14.06 Ю 1-3
{5}
40 км ясно +21.0 +2.1 29 +22 +35 комфорт 1017.0 1002.7
15 14.06 СЗ 3-4
{6}
35 км ясно +21.8 +1.2 26 +21 +26 комфорт 1014.9 1000.7
18 14.06 СЗ 2-4
{4}
40 км ясно +21.2 +2.1 28 +21 +22 комфорт 1013.6 999.4 +16.7 +22.2
21 14.06 С 2-2
{3}
50 км ясно +13.4 +6.6 63 +13 +13 1013.9 999.3
00 15.06 штиль 0-1
{1}
50 км ясно +8.7 +6.6 87 +8 +8 1013.7 998.9
03 15.06 С 1-2
{2}
45 км ясно +14.0 +6.3 60 +14 +16 1013.2 998.6
06 15.06 С 2-3
{3}
35 км ясно +18.7 +6.4 45 +20 +26 1013.5 999.2 +8.3 +21.2
09 15.06 СЗ 4-5
{5}
35 км ясно +20.5 +5.7 38 +21 +29 комфорт 1013.8 999.5
12 15.06 СЗ 4-8
{8}
40 км ясно +22.0 +2.9 28 +22 +29 комфорт 1013.7 999.6
15 15.06 З 4-7
{8}
40 км ясно +22.4 +2.8 28 +22 +26 комфорт 1013.3 999.1
18 15.06 З 4-6
{7}
45 км ясно +20.8 +2.4 30 +21 +22 комфорт 1012.9 998.7 +18.6 +23.0
21 15.06 З 3-4
{4}
50 км ясно +14.7 +6.8 59 +14 +14 1013.4 998.9
00 16.06 ЮЗ 2-2
{4}
50 км ясно +10.3 +8.0 86 +9 +9 1013.6 998.9
03 16.06 Ю 2-3
{3}
45 км ясно +12.9 +8.0 72 +12 +14 1012.1 997.5
06 16.06 ЮЗ 3-4
{4}
35 км ясно +18.4 +9.7 57 +19 +24 1011.0 996.7 +9.9 +20.8
09 16.06 З 4-8
{8}
35 км ясно +21.7 +10.3 48 +23 +31 комфорт 1010.7 996.5
12 16.06 З 4-8
{8}
40 км 1/0 1500 м
[]
+23.3 +7.7 37 +24 +31 комфорт 1009.7 995.6
15 16.06 З 4-8
{9}
40 км ясно +23.2 +8.3 38 +24 +28 комфорт 1009.1 995.1
18 16.06 З 3-6
{7}
50 км ясно +20.2 +8.1 46 +22 +22 комфорт 1009.7 995.5 +18.2 +25.0
21 16.06 ЮЗ 2-4
{4}
50 км ясно +15.0 +7.3 60 +15 +15 1010.0 995.5
00 17.06 В 1-2
{3}
50 км ясно +9.7 +8.5 92 +9 +9 1010.3 995.6
03 17.06 В 2-3
{3}
35 км ясно +13.0 +10.7 86 +12 +13 1009.3 994.7
06 17.06 ЮВ 3-4
{5}
40 км в посл. час дождь {ливн. осадки} 9/9 2000 м
[]
+16.6 +11.2 70 +16 +17 1008.6 994.2 +9.4 +20.2
09 17.06 Ю 3-6
{6}
45 км {ливн. осадки, дождь} 1/0 2000 м
[]
+19.9 +12.9 64 +22 +31 комфорт 1007.7 993.5
12 17.06 ЮЗ 4-7
{9}
35 км {ливн. осадки, дождь} 1/0
[]
+23.6 +10.7 44 +25 +32 комфорт 1006.6 992.6
15 17.06 З 4-6
{7}
40 км {ливн. осадки, дождь} 9/0
[]
+21.4 +10.2 49 +23 +25 комфорт 1006.4 992.3
18 17.06 СВ 1-1
{3}
45 км {ливн. осадки, дождь} 9/9
[]
+20.3 +11.8 58 +23 +23 комфорт 1005.9 991.8 +15.5 +24.2
21 17.06 ЮЗ 4-9
{9}
50 км 9/6 1500 м
[]
+17.2 +12.4 73 +17 +17 1006.0 991.7
00 18.06 ЮЗ 3-5
{5}
21 км слаб. ливневой дождь 9/1 100 м
[]
+14.1 +13.5 96 +13 +13 1006.2 991.7 0.1
03 18.06 С 1-2
{2}
18 км в посл. час дождь {ливн. осадки} 9/4 1500 м
[]
+13.5 +13.2 98 +14 +14 1006.1 991.6 0.2
06 18.06 ЮЗ 3-4
{4}
20 км {ливн. осадки, дождь} 10/6 100 м
[]
+14.6 +14.0 96 +14 +15 1007.0 992.6 +13.2 +20.3 4
09 18.06 З 2-4
{4}
45 км 6/4 300 м
[]
+18.6 +14.1 75 +20 +26 1007.5 993.2
12 18.06 ЮЗ 5-9
{9}
40 км 1/0
[]
+21.8 +8.4 42 +23 +28 комфорт 1007.1 993.0
15 18.06 ЮЗ 6-10
{10}
40 км ясно +20.9 +7.3 41 +22 +24 комфорт 1007.1 993.0
18 18.06 ЮЗ 4-6
{9}
45 км ясно +17.8 +10.4 62 +18 +18 1006.8 992.5 +14.5 +22.5
21 18.06 ЮЗ 3-5
{7}
50 км {ливн. осадки, дождь} ясно +16.5 +10.1 66 +16 +16 1005.9 991.6

 

Местоположение метеостанции Пудасъярви (Финляндия): широта 65.40 долгота 26.96 высота над уровнем моря 120 м.

В архиве по умолчанию представлена погода в Пудасъярви за последнюю неделю. Архивные данные за месяц целиком и за предыдущие месяцы, начиная с января 2011 года, Вы можете получить, выбрав интересующий диапазон дат из раскрывающегося списка и нажав кнопку "Ввод!".


*Определитесь, кто Вы:
робот инопланетянин человек

Внимание! Время в таблицах - всемирное. Для получения местного времени необходимо прибавить поправку, которая равна 1 ч.

Смотрите также архив погоды в соседних городах и на ближайших метеорологических станциях:

Погода в Тайвалкоски (Финляндия) (61 км)
Погода в Аэропорту Рануа (Финляндия) (69 км)
Погода в Оулу (Финляндия) (85 км)
Погода в Оулунсало Пеллонпаа (Финляндия) (90 км)
Погода в Пуоланка Пальякка (Финляндия) (97 км)
Погода в Суомуссалми (Финляндия) (99 км)
Погода в Ваала Пэлсо (Финляндия) (103 км)
Погода в Хайлуото (Финляндия) (112 км)
Погода в Кеми Айос (Финляндия) (116 км)
Погода в Кеми аэропорту (Финляндия) (117 км)

Пояснения к столбцам:

Ветер - указаны скорость ветра в м/с - средняя за 10 мин, порывы в срок и между сроками (в фигурных скобках) и направление, откуда дует ветер: С - северный, СВ - северо-восточный, В - восточный, ЮВ - юго-восточный, Ю - южный, ЮЗ - юго-западный, З - западный, СЗ - северо-западный.
Видимость - горизонтальная дальность видимости в метрах или километрах. При видимости от 1 до 10 км при отсутствии осадков обычно наблюдается дымка, при ухудшении видимости до 1 км и менее - туман. В сухую погоду видимость может ухудшаться дымом, пылью или мглою.
Явления - указаны атмосферные явления, наблюдавшиеся в срок или в последний час перед сроком; фигурными скобками обозначены явления, наблюдавшиеся между сроками (за 1-3 часа до срока); квадратными скобками обозначены град или гололедные отложения с указанием их диаметра в мм.
Облачность - указаны через наклонную черту общая и нижняя облачность в баллах и высота нижней границы облаков в метрах; квадратными скобками обозначены формы облаков: Ci - перистые, Cs - перисто-слоистые, Cc - перисто-кучевые, Ac - высококучевые, As - высокослоистые, Sc - слоисто-кучевые, Ns - слоисто-дождевые, Cu - кучевые, Cb - кучево-дождевые. Подробнее классификацию облаков см. в Атласе облаков (PDF).
T - Температура воздуха - температура, измеренная на высоте 2 м над землей.
Td - Температура точки росы - температура, при понижении до которой содержащийся в воздухе водяной пар достигнет насыщения.
f - Относительная влажность воздуха - влажноcть воздуха, измеренная на высоте 2 м над землей.
Te - Эффективная температура - температура, которую ощущает одетый по сезону человек в тени. Характеристика душности погоды. При расчете учитывается влияние влажности воздуха и скорости ветра на теплоощущения человека.
Tes - Эффективная температура на солнце - температура, которую ощущает человек, с поправкой на солнечный нагрев. Характеристика знойности погоды. Зависит от высоты солнца над горизонтом, облачности и скорости ветра. Ночью, в пасмурную погоду, а также при ветре 12 м/с и более поправка равна нулю.
P - Атмосферное давление - приведенное к уровню моря атмосферное давление.
Po - Атмосферное давление - измеренное на уровне метеостанции атмосферное давление.
Tmin - Минимальная температура - минимум температуры воздуха на высоте 2 м над землей.
Tmax - Максимальная температура - максимум температуры воздуха на высоте 2 м над землей.
R - Количество осадков - Количество выпавших осадков за период времени, мм. При наведении курсора мыши на число - период времени, за который выпало указанное количество осадков.
R24 - Количество осадков - Количество выпавших осадков за 24 часа, мм.
S - Снежный покров - Высота снежного покрова, см. При наведении курсора мыши на число - состояние снежного покрова и степень покрытия местности в баллах.